AirNav   Everest Fuels
 
 1067 users online  

PA78 Sports Complex N Lot Heliport
Philadelphia, Pennsylvania, USA

GOING TO PHILADELPHIA?


FAA INFORMATION EFFECTIVE 21 MAY 2020

Location

FAA Identifier: PA78
Lat/Long: 39-54-05.5600N 075-09-40.8400W
39-54.092667N 075-09.680667W
39.9015444,-75.1613444
(estimated)
Elevation: 26 ft. / 8 m (estimated)
From city: 3 miles S of PHILADELPHIA, PA
Time zone: UTC -4 (UTC -5 during Standard Time)
Zip code: 19112

Heliport Operations

Heliport use: Private use. Permission required prior to landing
Activation date: 11/2018
Control tower: no
ARTCC: NEW YORK CENTER
FSS: WILLIAMSPORT FLIGHT SERVICE STATION
Attendance: 
Wind indicator: no
Segmented circle: no

Heliport Communications

WX ASOS at PHL (4 nm SW): PHONE 215-492-9617
WX ASOS at PNE (13 nm NE): 121.15 (215-677-0146)
WX ASOS at VAY (15 nm E): 119.325 (609-267-1176)
WX AWOS-3 at LOM (15 nm N): 118.925 (215-646-1068)

Nearby radio navigation aids

VOR radial/distance  VOR name  Freq  Var
OODr032/17.2WOODSTOWN VORTAC112.8010W
MXEr101/23.5MODENA VORTAC113.2009W
VCNr348/23.6CEDAR LAKE VOR/DME115.2010W
ARDr219/24.1YARDLEY VOR/DME108.2010W
DQOr067/24.5DUPONT VORTAC114.0010W
PTWr145/26.6POTTSTOWN VORTAC116.5009W
GXUr268/26.8MC GUIRE VORTAC110.6012W
CYNr289/34.0COYLE VORTAC113.4010W
RBVr249/35.5ROBBINSVILLE VORTAC113.8010W
ACYr325/38.0ATLANTIC CITY VORTAC117.1510W

 
NDB name  Hdg/Dist  Freq  Var  ID
AMBLER169/14.627512WING .. -. --.
RAINBOW009/29.036311WRNB .-. -. -...
LAKEHURST268/38.939611WNEL -. . .-..

Heliport Services

Runway Information

Helipad H1

Dimensions: 46 x 46 ft. / 14 x 14 m
Surface: asphalt, in excellent condition
Latitude: 39-54.092667N
Longitude: 075-09.680667W
Elevation: 26.0 ft.
Traffic pattern: leftleft

Heliport Ownership and Management from official FAA records

Ownership: Privately-owned
Owner: PHILADELPHIA 76ERS LP
3 BANNER WAY
CAMDEN, NJ 08103
Phone 215-339-7625
Manager: LARA PRICE, PHILADELPHIA 76ERS LP
3 BANNER WAY
CAMDEN, NJ 08103
Phone 215-339-7625
LARAPRICE@76ERS.COM

Additional Remarks

FOR CD CTC PHILADELPHIA APCH AT 800-354-9884.

Instrument Procedures

There are no published instrument procedures at PA78.

Some nearby airports with instrument procedures:

KPHL - Philadelphia International Airport (4 nm SW)
19N - Camden County Airport (12 nm SE)
KPNE - Northeast Philadelphia Airport (13 nm NE)
17N - Cross Keys Airport (13 nm SE)
KVAY - South Jersey Regional Airport (15 nm E)
7N7 - Spitfire Aerodrome (15 nm SW)
KLOM - Wings Field Airport (15 nm N)
N14 - Flying W Airport (16 nm E)
 
Loc | Ops | Rwys | IFR | FBO | Links
Com | Nav | Svcs | Stats | Notes
Aerial photo
No photo
 
Airport distance calculator
Flying to Sports Complex N Lot Heliport? Find the distance to fly.

From to PA78

Sunrise and sunset
Times for 06-Jun-2020
 Local
(UTC-4)
 Zulu
(UTC)
Morning civil twilight05:0109:01
Sunrise05:3309:33
Sunset20:2600:26
Evening civil twilight20:5800:58

Current date and time
Zulu (UTC)  06-Jun-2020 15:31:47
Local (UTC-4)  06-Jun-2020 11:31:47
 
METAR
KPHL 
4nm SW 
061454Z 30006KT 10SM FEW020 BKN260 26/20 A2983 RMK AO2 SLP099 T02610200 58004 $
KPNE 
13nm NE 
061454Z 30008KT 10SM CLR 28/22 A2983 RMK AO2 SLP099 T02780217 58004
KLOM 
15nm N 
061515Z AUTO 28007KT 250V310 10SM BKN019 26/22 A2983 RMK AO2 T02610220
KVAY 
15nm E 
ASOS 119.325 609-267-1176
061454Z AUTO VRB05KT 10SM FEW014 26/21 A2981 RMK AO2 SLP095 T02610211 58004
TAF
KPHL 
4nm SW 
061336Z 0614/0718 27005KT P6SM SCT010 TEMPO 0614/0615 BKN010 FM061500 26008KT P6SM SCT040 FM061700 27010G20KT P6SM SCT050 TEMPO 0621/0623 SHRA BKN035 FM062300 32010G20KT P6SM SCT050 FM070400 33008KT P6SM SKC FM071300 34012G20KT P6SM SCT060
KPNE 
13nm NE 
061136Z 0612/0712 29004KT 5SM BR BKN005 TEMPO 0612/0613 P6SM NSW BKN008 FM061300 27006KT P6SM BKN012 FM061500 27008KT P6SM SCT040 FM061700 28010G20KT P6SM SCT050 TEMPO 0621/0623 SHRA BKN035 FM062300 33010G20KT P6SM SCT050 FM070400 33008KT P6SM SKC
NOTAMs
Click for the latest NOTAMs
NOTAMs are issued by the DoD/FAA and will open in a separate window not controlled by AirNav.

 

 
 

Would you like to see your business listed on this page?

 If your business provides an interesting product or service to pilots, flight crews, aircraft, or users of the Sports Complex N Lot Heliport, you should consider listing it here.  To start the listing process, click on the button below
 
Add a business
 

Other Pages about Sports Complex N Lot Heliport

Update a link
 
Copyright © AirNav, LLC. All rights reserved. Privacy Policy  Contact